This is the latest recevied weather packets stored in our database for station/object EB2GLU-13. If no packets are shown the sender has not sent any weather packets the latest 10 day(s).
| Time | Temp. | Humidity | Pressure | Rain* | Wind** | Luminosity | Snow |
|---|---|---|---|---|---|---|---|
| 1777335390 | 15° C | 97% | 1015.3 hPa | 0 mm | - | - | - |
| 1777334640 | 15° C | 97% | 1015.6 hPa | 0 mm | - | - | - |
| 1777333890 | 15° C | 97% | 1015.5 hPa | 0 mm | - | - | - |
| 1777333140 | 15° C | 97% | 1016 hPa | 0 mm | - | - | - |
| 1777332390 | 15.56° C | 97% | 1016 hPa | 0.25 mm | - | - | - |
| 1777331640 | 15° C | 97% | 1016 hPa | 0.51 mm | - | - | - |
| 1777330890 | 15° C | 97% | 1016.1 hPa | 1.02 mm | - | - | - |
| 1777330140 | 15° C | 97% | 1015.8 hPa | 1.02 mm | - | - | - |
| 1777329390 | 15° C | 97% | 1015.8 hPa | 1.02 mm | - | - | - |
| 1777328640 | 15° C | 96% | 1015.8 hPa | 0.51 mm | - | - | - |
| 1777327890 | 15° C | 96% | 1016 hPa | 0.25 mm | - | - | - |
| 1777327140 | 15° C | 96% | 1016.3 hPa | 0 mm | - | - | - |
| 1777326390 | 15.56° C | 96% | 1016.1 hPa | 0 mm | - | - | - |
| 1777325640 | 15° C | 96% | 1015.9 hPa | 0 mm | - | - | - |
| 1777324890 | 15° C | 96% | 1015.9 hPa | 0 mm | - | - | - |
| 1777324140 | 15° C | 96% | 1015.5 hPa | 0 mm | - | - | - |
| 1777323390 | 15.56° C | 96% | 1015.4 hPa | 0 mm | - | - | - |
| 1777322640 | 15° C | 96% | 1015.9 hPa | 0 mm | - | - | - |
| 1777321890 | 15° C | 96% | 1016 hPa | 0 mm | - | - | - |
| 1777321140 | 15.56° C | 96% | 1016.4 hPa | 0 mm | - | - | - |
| 1777320390 | 15.56° C | 96% | 1016.2 hPa | 0.25 mm | - | - | - |
| 1777319640 | 15.56° C | 95% | 1016.5 hPa | 0.25 mm | - | - | - |
| 1777318890 | 16.11° C | 95% | 1016.5 hPa | 0.51 mm | - | - | - |
| 1777318140 | 15.56° C | 95% | 1016.7 hPa | 0.76 mm | - | - | - |
| 1777317390 | 15.56° C | 94% | 1016.7 hPa | 0.76 mm | - | - | - |
* Rain latest hour (hover to see other rain measurements)
** Current wind speed in m/s (hover to see current wind gust speed)